Location: Newark
(21.1200°N, 73.4000°E)
Time: 21:08:10
(UTC+00:00)

SR - Pass Details

Date: 28 January 2020
Orbit: 575 x 881 km, 66.7° (Epoch: 19 February)

Event Time Altitude Azimuth Distance (km) Brightness Sun altitude
Rises 14:44:36 0° 174° (S) 3,272 ? -25.8°
Reaches altitude 10° 14:47:17 10° 163° (SSE) 2,392 ? -26.4°
Enters shadow 14:47:31 11° 161° (SSE) 2,323 ? -26.5°
Maximum altitude 14:51:54 27° 106° (ESE) 1,558 - -27.5°
Drops below altitude 10° 14:56:44 10° 50° (NE) 2,510 - -28.6°
Sets 14:59:36 0° 39° (NE) 3,466 - -29.2°
